Regional Weather Roundup
Issued by NWS

Home | Current Version | Previous Version | Text Only | Print | Product List | Glossary Off
Versions: 1 2 3 4 5 6 7 8 9 10 11 12 13 14 15 16 17 18 19 20 21 22 23 24 25 26 27 28 29 30 31 32 33 34 35 36 37 38 39 40 41 42 43 44 45 46 47 48 49 50

000
ASUS45 KABQ 220201
RWRNM
WEATHER ROUNDUP FOR NEW MEXICO
NATIONAL WEATHER SERVICE ALBUQUERQUE NM
800 PM MDT TUE OCT 21 2014

NOTE: "FAIR" MEANS FEW OR NO CLOUDS BELOW 12,000 FEET AGL WITH NO
       SIGNIFICANT WEATHER OR OBSTRUCTIONS TO VISION.

      THIS PRODUCT IS RELEASED AS TWO VERSIONS.  ONE VERSION NEAR
      THE TOP OF THE HOUR CONTAINING PRELIMINARY DATA FROM ALBUQUERQUE
      AND OTHER STATIONS.  A FINAL VERSION WITH ADDITIONAL DATA IS
      ISSUED ABOUT 10 MINUTES AFTER THE HOUR.

NMZ501-503-504-510>518-220300-
NORTHWEST PLATEAU/NORTHCENTRAL MOUNTAINS

CITY           SKY/WX    TMP DP  RH WIND       PRES   REMARKS
FARMINGTON     CLEAR     60  43  53 CALM      30.04R
LOS ALAMOS     CLOUDY    54  44  68 SW5       30.16R
SANTA FE       PTCLDY    53  45  74 SE7       30.12R
TAOS           MOCLDY    48  37  66 SW5       30.16R
ANGEL FIRE     FAIR      44  40  86 S6        30.20S

$$
NMZ402-403-502-505>509-220300-
WESTCENTRAL MOUNTAINS/SOUTHWEST MOUNTAINS

CITY           SKY/WX    TMP DP  RH WIND       PRES   REMARKS
GALLUP         LGT RAIN  56  46  69 N8        30.11R
GRANTS         MOCLDY    50  46  87 CALM      30.14R
SILVER CITY    CLEAR     59  48  67 S3        30.09S

$$
NMZ407-409-411-412-220300-
SOUTHERN DESERTS

CITY           SKY/WX    TMP DP  RH WIND       PRES   REMARKS
LORDSBURG      FAIR      61  50  67 MISG      30.02R
DEMING         CLEAR     62  55  77 E3        30.03R
LAS CRUCES     CLEAR     63  53  71 SE7       30.05R
HOLLOMAN AFB   PTCLDY    62  53  72 S7        30.03R
T OR C         MOCLDY    64  52  64 NW6       30.05R

$$
NMZ519>523-220300-
CENTRAL VALLEYS/CENTRAL HIGHLANDS

CITY           SKY/WX    TMP DP  RH WIND       PRES   REMARKS
ALBUQUERQUE    PTCLDY    61  47  59 S6        30.08R
DOUBLE EAGLE   CLEAR     54  45  71 S8        30.10R
MORIARTY ARPT  CLOUDY    55  50  83 SE8       30.14R
CLINES CORNERS LGT RAIN  51  49  92 S9        30.15R
BELEN          NOT AVBL
SOCORRO        FAIR      58  51  77 SW7       30.06R

$$
NMZ524>526-539-540-220300-
SOUTHCENTRAL MOUNTAINS

CITY           SKY/WX    TMP DP  RH WIND       PRES   REMARKS
RUIDOSO        MOCLDY    52  50  93 SE9       30.19R

$$
NMZ527>531-220300-
NORTHEAST HIGHLANDS/NORTHEAST PLAINS

CITY           SKY/WX    TMP DP  RH WIND       PRES   REMARKS
LAS VEGAS      LGT RAIN  51  49  92 S13       30.16R
RATON          PTCLDY    55  46  71 S13       30.10R
CLAYTON        CLEAR     59  47  64 SW12      30.06R

$$
NMZ532>537-220300-
EASTCENTRAL PLAINS

CITY           SKY/WX    TMP DP  RH WIND       PRES   REMARKS
TUCUMCARI      LGT RAIN  60  56  86 S8        30.07R
CANNON AFB     MOCLDY    58  57  95 SE3       30.10R
CLOVIS AIRPORT CLOUDY    61  54  77 S7        30.12S

$$
NMZ028-029-538-220300-
SOUTHEAST PLAINS

CITY           SKY/WX    TMP DP  RH WIND       PRES   REMARKS
ROSWELL        MOCLDY    61  57  87 SE6       30.07R
CARLSBAD       CLOUDY    66  60  81 SE8       30.05R
HOBBS          CLOUDY    61  59  94 CALM      30.09R


$$



USA.gov is the U.S. government's official web portal to all federal, state and local government web resources and services.